Powrót do katalogu

STARLINK-4214

AktywnyŁącznośćVLEO
NORAD 52877·PAYLOAD·🇺🇸 United States

Wystrzelony Jun 17, 2022 z Cape Canaveral Space Force Station

Loading…

Następne Przeloty (najbliższe 24 godziny)

TLE

ŚwieżeSource: CelesTrak SupGP

Epoka: Sep 14, 2026, 21:16 UTC

1 52877C 22062AZ  26257.88659722  .00038072  00000+0  11248-2 0  2574
2 52877  53.1573 232.1588 0001224  98.8353 186.0338 15.34371845    10

Śledź STARLINK-4214 w czasie rzeczywistym z AllMySat

Download on the App Store